Location: Rowland
(34.5359°N, 79.2929°W)
Time: 20:10:21
(UTC+00:00)

Transit 4A - Pass Details

Date: 07 October 2022
Orbit: 871 x 972 km, 66.8° (Epoch: 01 December)

Event Time Altitude Azimuth Distance (km) Brightness Sun altitude
Rises 11:20:38 0° 336° (NNW) 3,476 10.6 0.0°
Reaches altitude 10° 11:23:09 10° 338° (NNW) 2,528 9.9 0.5°
Maximum altitude 11:28:57 70° 63° (ENE) 926 8.3 1.7°
Drops below altitude 10° 11:34:44 10° 146° (SE) 2,516 10.9 2.9°
Sets 11:37:14 0° 149° (SSE) 3,458 11.5 3.4°
